Location: Unspecified
(38.9820°N, 94.4650°W)
Time: 08:12:16
(UTC-05:00)

Cosmos 1674 - Visible Passes

Search period start: 16 October 2018 00:00
Search period end: 26 October 2018 00:00
Orbit: 497 x 519 km, 82.5° (Epoch: 16 October)

Date Brightness Start Highest point End Pass type
(mag) Time Alt. Az. Time Alt. Az. Time Alt. Az.
16 Oct 5.6 06:21:12 10° SE 06:24:10 22° E 06:27:09 10° NE visible
16 Oct 6.5 19:28:55 10° WNW 19:29:56 11° W 19:30:55 10° W visible
17 Oct 6.0 06:04:28 10° SE 06:06:58 17° E 06:09:28 10° NE visible
17 Oct 6.1 19:10:40 10° NW 19:12:44 14° W 19:14:48 10° WSW visible
18 Oct 6.3 05:47:59 10° ESE 05:49:46 13° E 05:51:33 10° ENE visible
20 Oct 2.6 06:46:31 10° SSW 06:50:19 65° W 06:54:10 10° N visible
21 Oct 2.6 06:29:11 10° S 06:33:02 88° W 06:36:55 10° N visible
22 Oct 3.0 06:11:57 10° S 06:15:45 69° E 06:19:36 10° NNE visible
23 Oct 3.6 05:54:46 10° S 05:58:29 51° E 06:02:14 10° NNE visible
24 Oct 4.2 05:37:40 10° SSE 05:41:14 38° E 05:44:50 10° NNE visible
25 Oct 4.7 05:20:40 10° SSE 05:24:00 29° E 05:27:22 10° NNE visible
25 Oct 4.2 06:57:06 10° WSW 06:59:36 16° WNW 07:02:06 10° NNW visible
